TimeMST,TemperatureF,Dew PointF,Humidity,Sea Level PressureIn,VisibilityMPH,Wind Direction,Wind SpeedMPH,Gust SpeedMPH,PrecipitationIn,Events,Conditions,WindDirDegrees,DateUTC
12:15 AM,50.0,5.0,16,30.25,10.0,ENE,18.4,23.0,N/A,,Clear,60,2012-11-14 07:15:00
12:35 AM,50.0,5.0,16,30.26,10.0,ENE,15.0,19.6,N/A,,Clear,70,2012-11-14 07:35:00
12:55 AM,50.0,6.8,17,30.26,10.0,ENE,15.0,18.4,N/A,,Clear,60,2012-11-14 07:55:00
1:15 AM,50.0,8.6,19,30.26,10.0,ENE,15.0,-,N/A,,Clear,60,2012-11-14 08:15:00
1:35 AM,50.0,8.6,19,30.26,10.0,NE,13.8,20.7,N/A,,Clear,50,2012-11-14 08:35:00
1:55 AM,50.0,8.6,19,30.25,10.0,NE,17.3,20.7,N/A,,Clear,50,2012-11-14 08:55:00
2:15 AM,48.2,8.6,20,30.25,10.0,NE,16.1,23.0,N/A,,Clear,50,2012-11-14 09:15:00
2:35 AM,48.2,10.4,22,30.25,10.0,NE,17.3,21.9,N/A,,Clear,50,2012-11-14 09:35:00
2:55 AM,50.0,10.4,20,30.24,10.0,ENE,17.3,-,N/A,,Clear,60,2012-11-14 09:55:00
3:15 AM,50.0,10.4,20,30.25,10.0,ENE,10.4,-,N/A,,Clear,60,2012-11-14 10:15:00
3:35 AM,48.2,12.2,24,30.25,10.0,ENE,15.0,-,N/A,,Clear,60,2012-11-14 10:35:00
4:15 AM,48.2,12.2,24,30.23,10.0,ENE,13.8,18.4,N/A,,Clear,60,2012-11-14 11:15:00
4:35 AM,46.4,14.0,27,30.23,10.0,NE,13.8,20.7,N/A,,Clear,50,2012-11-14 11:35:00
4:55 AM,46.4,14.0,27,30.23,10.0,NE,15.0,-,N/A,,Clear,50,2012-11-14 11:55:00
5:15 AM,46.4,14.0,27,30.23,10.0,ENE,16.1,20.7,N/A,,Clear,60,2012-11-14 12:15:00
5:35 AM,48.2,14.0,25,30.23,10.0,ENE,12.7,-,N/A,,Clear,60,2012-11-14 12:35:00
5:55 AM,46.4,14.0,27,30.23,10.0,ENE,15.0,-,N/A,,Clear,60,2012-11-14 12:55:00
6:15 AM,46.4,15.8,29,30.22,10.0,ENE,17.3,-,N/A,,Clear,60,2012-11-14 13:15:00
6:35 AM,46.4,15.8,29,30.23,10.0,ENE,13.8,-,N/A,,Clear,60,2012-11-14 13:35:00
6:55 AM,46.4,15.8,29,30.23,10.0,ENE,16.1,21.9,N/A,,Clear,60,2012-11-14 13:55:00
7:15 AM,46.4,15.8,29,30.25,10.0,ENE,9.2,17.3,N/A,,Clear,60,2012-11-14 14:15:00
7:35 AM,46.4,17.6,32,30.26,10.0,ENE,9.2,-,N/A,,Clear,60,2012-11-14 14:35:00
7:55 AM,48.2,17.6,30,30.26,10.0,ENE,9.2,-,N/A,,Clear,60,2012-11-14 14:55:00
8:15 AM,50.0,17.6,28,30.26,10.0,NE,12.7,-,N/A,,Clear,50,2012-11-14 15:15:00
8:35 AM,51.8,17.6,26,30.25,10.0,ENE,11.5,17.3,N/A,,Clear,60,2012-11-14 15:35:00
8:55 AM,51.8,19.4,28,30.26,10.0,NE,10.4,18.4,N/A,,Clear,40,2012-11-14 15:55:00
9:15 AM,53.6,19.4,26,30.26,10.0,NE,8.1,-,N/A,,Clear,50,2012-11-14 16:15:00
9:35 AM,55.4,19.4,25,30.25,10.0,East,4.6,-,N/A,,Clear,90,2012-11-14 16:35:00
9:55 AM,57.2,19.4,23,30.26,10.0,SSE,3.5,-,N/A,,Clear,150,2012-11-14 16:55:00
10:15 AM,59.0,21.2,23,30.26,10.0,SSE,3.5,-,N/A,,Clear,150,2012-11-14 17:15:00
10:35 AM,60.8,21.2,22,30.26,10.0,SSW,4.6,-,N/A,,Clear,200,2012-11-14 17:35:00
10:55 AM,60.8,21.2,22,30.26,10.0,SW,3.5,-,N/A,,Clear,230,2012-11-14 17:55:00
11:15 AM,60.8,21.2,22,30.26,10.0,Calm,Calm,-,N/A,,Clear,0,2012-11-14 18:15:00
11:35 AM,60.8,19.4,20,30.25,10.0,WNW,3.5,-,N/A,,Clear,300,2012-11-14 18:35:00
11:55 AM,60.8,19.4,20,30.24,10.0,Calm,Calm,-,N/A,,Clear,0,2012-11-14 18:55:00
12:15 PM,62.6,19.4,19,30.23,10.0,Calm,Calm,-,N/A,,Clear,0,2012-11-14 19:15:00
12:35 PM,66.2,19.4,17,30.21,10.0,South,4.6,-,N/A,,Clear,180,2012-11-14 19:35:00
12:55 PM,66.2,19.4,17,30.21,10.0,South,4.6,-,N/A,,Clear,170,2012-11-14 19:55:00
1:15 PM,66.2,17.6,15,30.20,10.0,WSW,3.5,-,N/A,,Clear,250,2012-11-14 20:15:00
1:35 PM,66.2,17.6,15,30.20,10.0,SSE,5.8,-,N/A,,Clear,160,2012-11-14 20:35:00
1:55 PM,68.0,17.6,15,30.20,10.0,South,4.6,-,N/A,,Clear,170,2012-11-14 20:55:00
2:15 PM,64.4,17.6,16,30.19,10.0,Calm,Calm,-,N/A,,Clear,0,2012-11-14 21:15:00
2:35 PM,64.4,17.6,16,30.18,10.0,Calm,Calm,-,N/A,,Clear,0,2012-11-14 21:35:00
2:55 PM,66.2,19.4,17,30.18,10.0,SSW,4.6,-,N/A,,Clear,200,2012-11-14 21:55:00
3:15 PM,66.2,17.6,15,30.18,10.0,Calm,Calm,-,N/A,,Clear,0,2012-11-14 22:15:00
3:35 PM,66.2,17.6,15,30.17,10.0,South,3.5,-,N/A,,Clear,190,2012-11-14 22:35:00
3:55 PM,64.4,15.8,15,30.17,10.0,Calm,Calm,-,N/A,,Clear,0,2012-11-14 22:55:00
4:15 PM,64.4,15.8,15,30.17,10.0,Calm,Calm,-,N/A,,Clear,0,2012-11-14 23:15:00
4:35 PM,62.6,15.8,16,30.17,10.0,Calm,Calm,-,N/A,,Clear,0,2012-11-14 23:35:00
4:55 PM,62.6,17.6,18,30.17,10.0,Calm,Calm,-,N/A,,Clear,0,2012-11-14 23:55:00
5:15 PM,62.6,17.6,18,30.16,10.0,Calm,Calm,-,N/A,,Clear,0,2012-11-15 00:15:00
5:35 PM,60.8,17.6,19,30.17,10.0,North,3.5,-,N/A,,Clear,10,2012-11-15 00:35:00
5:55 PM,59.0,19.4,22,30.17,10.0,North,3.5,-,N/A,,Clear,360,2012-11-15 00:55:00
6:15 PM,59.0,19.4,22,30.17,10.0,Calm,Calm,-,N/A,,Clear,0,2012-11-15 01:15:00
6:35 PM,57.2,19.4,23,30.18,10.0,NE,8.1,-,N/A,,Clear,40,2012-11-15 01:35:00
6:55 PM,57.2,19.4,23,30.18,10.0,NE,9.2,-,N/A,,Clear,50,2012-11-15 01:55:00
7:15 PM,57.2,19.4,23,30.18,10.0,NE,10.4,-,N/A,,Clear,50,2012-11-15 02:15:00
7:35 PM,55.4,17.6,23,30.17,10.0,NE,11.5,-,N/A,,Clear,50,2012-11-15 02:35:00
7:55 PM,55.4,17.6,23,30.18,10.0,NE,10.4,-,N/A,,Clear,40,2012-11-15 02:55:00
8:15 PM,55.4,17.6,23,30.19,10.0,NE,9.2,-,N/A,,Clear,40,2012-11-15 03:15:00
8:35 PM,55.4,17.6,23,30.18,10.0,NE,11.5,-,N/A,,Clear,40,2012-11-15 03:35:00
8:55 PM,55.4,17.6,23,30.19,10.0,NE,11.5,-,N/A,,Clear,50,2012-11-15 03:55:00
9:15 PM,55.4,17.6,23,30.19,10.0,NE,12.7,-,N/A,,Clear,40,2012-11-15 04:15:00
9:35 PM,53.6,15.8,22,30.19,10.0,NE,12.7,-,N/A,,Clear,40,2012-11-15 04:35:00
9:55 PM,53.6,15.8,22,30.19,10.0,NE,13.8,-,N/A,,Clear,40,2012-11-15 04:55:00
10:15 PM,51.8,17.6,26,30.19,10.0,NE,12.7,-,N/A,,Clear,40,2012-11-15 05:15:00
10:35 PM,53.6,15.8,22,30.19,10.0,NE,12.7,-,N/A,,Clear,40,2012-11-15 05:35:00
10:55 PM,51.8,15.8,24,30.19,10.0,NE,12.7,-,N/A,,Clear,40,2012-11-15 05:55:00
11:15 PM,51.8,17.6,26,30.19,10.0,NE,12.7,-,N/A,,Clear,40,2012-11-15 06:15:00
11:35 PM,51.8,17.6,26,30.19,10.0,NE,16.1,-,N/A,,Clear,40,2012-11-15 06:35:00
11:55 PM,51.8,15.8,24,30.20,10.0,NE,15.0,-,N/A,,Clear,40,2012-11-15 06:55:00